OBJECT L, 63992

Orbit data source: Space-Track

You're viewing an Uncataloged Satellite

Recently launched and/or uncataloged satellites may have evolving metadata. Metadata may include but not limited to: Owner, Maufacturer, Bus, Motor, and Mission.

OBJECT L, 63992 is a Chinese satellite in SSO that was launched on Wed, 14 May 2025 UTC via a CHANG ZHENG 2D launch vehicle from the Jiuquan Satellite Launch Center, China (JSC). Unknown objects in Earth's orbit typically refer to objects detected orbiting the Earth but have not yet been identified or cataloged. These objects could be anything from previously untracked satellites, spent rocket stages, debris from satellite collisions, or even natural meteoroids temporarily captured by Earth's gravity.

Loading next visibility...
Identifier
63992, 2025-100L
Orbit
SSO
Last TLE update
10 hours ago
Origin
Flag of CNCN / PRC
Manufacturer
Unknown
Mission
Operational spacecraft
Bus & Motor
Unknown
Mass
Unknown
Launch date (UTC)
2025-05-14 (1 month ago)
Launch vehicle
CHANG ZHENG 2D
Launch site
Jiuquan Satellite Launch Center, China (JSC)
Object type
Unknown
Shape & HBR
Unknown
Radar Cross Section
Medium (>0.1 m² and <1 m²)

Expand to show TLE details & history

TLE from 10 hours ago
0 OBJECT L
1 63992U 25100L   25169.86740254  .00013467  00000-0  62241-3 0  9995
2 63992  97.4052 244.9379 0014814 138.5990 221.6370 15.20196751  5394
Epoch: 2025-06-18T20:49Z
TLE epoch observation values (Epoch: 2025-06-18T20:49:03.579Z)
Latitude
-0.0001°
Longitude
25.32972°
Altitude
515.967 km
Speed
7.601 km/s
True Right ascension
16h 19m 45s
True Declination
0° 00' 00"
Sunlit
Object was in full shadow at epoch
Visualization orbit readout
Latitude
47.68°
Longitude
-146.09833°
Altitude
502.544 km
Speed
7.623 km/s
Apparent Right ascension
05h 19m 10s
Apparent Declination
5° 58' 52"
Sunlit
Object is in daylight
Visualization observer readout
Local Sidereal Time
17:42:59
Azimuth
8.212° NNE
Elevation
-43.776°
Doppler factor
1
Orbital elements
Apogee altitude
512.405 km
Perigee altitude
492.02 km
Semi-major axis
6,880.349 km
Eccentricity
0.00148
Inclination
97.4052°
RAAN
244.9379°
Arg. of periapsis
138.599°
True anomaly
Unknown
Mean anomaly
221.637°
Eccentric anomaly
Unknown
Mean motion
3.80301 °/min
Orbital period
94.66 mins
BSTAR
0.00062241
Loading maneuver chart data...
Loading SW <> Apogee altitude chart data...
Loading historical data...
Loading historical data...
Loading historical data...
Loading historical data...
Loading historical data...
Loading historical data...
Loading historical data...

OBJECT L Visibility forecast

Observer location: undefined°, undefined°

Span
Click to sort rows by Start time (UTC) header in descending order
Start Az.
Max El. time (UTC)
Max El. Az.
Max El.
End time (UTC)
End Az.
7 mins2025-06-19 17:54:26.186Z10.488° NNE2025-06-19 17:58:26.186Z205.273° SW42.111°2025-06-19 18:01:26.186Z195.081° SSW
5 mins2025-06-20 04:33:26.186Z129.87° SE2025-06-20 04:35:26.186Z83.941° E29.368°2025-06-20 04:38:26.186Z11.347° NNE
|